User: anonymous   Login
Location: Mohawk View
(42.7837°N, 73.7885°W)
Time: 20:28:53
(UTC+00:00)
Language:

deb Kosmos-1375 - Orbit

View from above orbital plane
View from above orbital plane
View from above satellite
View from above satellite

Ground track
Ground track

The orbit data is extracted from the following two-line orbital elements,

1 17796U 82055AN  22021.15676076  .00000197  00000-0  17710-3 0  9991
2 17796  65.8222 284.9462 0037968  22.3563  51.6857 14.04445613505291
Epoch (UTC): 21 January 2022 03:45:44
Eccentricity: 0.0037968
inclination: 65.8222°
perigee height: 851 km
apogee height: 906 km
right ascension of ascending node: 284.9462°
argument of perigee: 22.3563°
revolutions per day: 14.04445613
mean anomaly at epoch: 51.6857°
orbit number at epoch: 50529

The dashed part of the orbit path shows where the satellite is in the earth's shadow,  

DLR